BCS5547 EPWA-EDDP

Flight info

Callsign BCS5547
Flight time 0h 59m
Altitude 32000
Route LOLSI T174 KORUP Z220 BEBKU T950 LUXBO LUXBO1R
Aircraft A333/H-SDE3GHIJ2J3J5M1RVWXY/LB2D1

Departure

Time 2026-05-07 17:23
Airport Warsaw Chopin Airport (EPWA)

Arrival

Time 2026-05-07 18:22
Airport Leipzig/Halle Airport (EDDP)
Time Latitude Longitude Altitude Speed Heading
2026-05-07 16:44 52.15515 20.98194 364 ft 0 kts 64°
2026-05-07 17:15 52.15510 20.98175 364 ft 2 kts 64°
2026-05-07 17:15 52.15503 20.98153 361 ft 2 kts 63°
2026-05-07 17:15 52.15496 20.98130 364 ft 2 kts 62°
2026-05-07 17:16 52.15489 20.98107 362 ft 2 kts 61°
2026-05-07 17:16 52.15481 20.98084 361 ft 2 kts 60°
2026-05-07 17:16 52.15474 20.98060 364 ft 2 kts 44°
2026-05-07 17:16 52.15465 20.98056 360 ft 1 kts 342°
2026-05-07 17:20 52.15473 20.98053 364 ft 7 kts 342°
2026-05-07 17:21 52.15541 20.97999 358 ft 13 kts 317°
2026-05-07 17:21 52.15545 20.97863 363 ft 13 kts 247°
2026-05-07 17:21 52.15500 20.97721 362 ft 13 kts 240°
2026-05-07 17:21 52.15497 20.97686 359 ft 2 kts 288°
2026-05-07 17:22 52.15510 20.97656 362 ft 0 kts 315°
2026-05-07 17:22 52.15513 20.97651 362 ft 5 kts 317°
2026-05-07 17:22 52.15655 20.97520 363 ft 56 kts 332°
2026-05-07 17:22 52.16235 20.97002 363 ft 133 kts 332°
2026-05-07 17:23 52.17218 20.96143 635 ft 183 kts 332°
2026-05-07 17:23 52.18413 20.95055 1326 ft 211 kts 330°
2026-05-07 17:23 52.19758 20.93692 2063 ft 245 kts 328°
2026-05-07 17:23 52.21283 20.92111 2788 ft 272 kts 329°
2026-05-07 17:24 52.22971 20.90526 3609 ft 287 kts 324°
2026-05-07 17:24 52.24129 20.87900 4384 ft 302 kts 281°
2026-05-07 17:24 52.23975 20.84414 5057 ft 320 kts 251°
2026-05-07 17:24 52.22878 20.81288 6441 ft 312 kts 236°
2026-05-07 17:25 52.21724 20.78373 8062 ft 300 kts 239°
2026-05-07 17:25 52.20732 20.75458 9687 ft 289 kts 243°
2026-05-07 17:25 52.19873 20.72560 10923 ft 291 kts 244°
2026-05-07 17:25 52.19051 20.69442 11670 ft 308 kts 248°
2026-05-07 17:26 52.18345 20.66087 12541 ft 318 kts 252°
2026-05-07 17:26 52.17874 20.62519 13573 ft 324 kts 257°
2026-05-07 17:26 52.17500 20.58914 14522 ft 330 kts 258°
2026-05-07 17:26 52.17174 20.55178 15415 ft 336 kts 259°
2026-05-07 17:27 52.16879 20.51382 16333 ft 340 kts 260°
2026-05-07 17:27 52.16620 20.47855 17157 ft 345 kts 260°
2026-05-07 17:27 52.16348 20.44105 18076 ft 349 kts 260°
2026-05-07 17:27 52.16059 20.40156 18887 ft 353 kts 260°
2026-05-07 17:28 52.15783 20.36456 19619 ft 357 kts 259°
2026-05-07 17:28 52.15461 20.32227 20450 ft 360 kts 259°
2026-05-07 17:28 52.15198 20.28807 21095 ft 364 kts 258°
2026-05-07 17:28 52.14878 20.24702 21870 ft 367 kts 258°
2026-05-07 17:29 52.14562 20.20681 22594 ft 371 kts 258°
2026-05-07 17:29 52.14222 20.16370 23360 ft 374 kts 257°
2026-05-07 17:29 52.13887 20.12149 23992 ft 378 kts 257°
2026-05-07 17:29 52.13547 20.07882 24572 ft 382 kts 257°
2026-05-07 17:30 52.13202 20.03565 25090 ft 387 kts 257°
2026-05-07 17:30 52.12850 19.99192 25607 ft 392 kts 257°
2026-05-07 17:30 52.12496 19.94787 26220 ft 394 kts 257°
2026-05-07 17:30 52.12144 19.90434 26798 ft 396 kts 257°
2026-05-07 17:31 52.11782 19.85975 27372 ft 399 kts 256°
2026-05-07 17:31 52.11416 19.81498 27928 ft 402 kts 256°
2026-05-07 17:31 52.11047 19.77013 28469 ft 406 kts 256°
2026-05-07 17:31 52.10677 19.72536 29003 ft 409 kts 256°
2026-05-07 17:32 52.10294 19.67926 29539 ft 412 kts 256°
2026-05-07 17:32 52.09908 19.63291 30077 ft 415 kts 256°
2026-05-07 17:32 52.09516 19.58618 30546 ft 418 kts 256°
2026-05-07 17:32 52.09255 19.55519 30865 ft 419 kts 256°
2026-05-07 17:33 52.08723 19.49209 31503 ft 422 kts 256°
2026-05-07 17:33 52.08320 19.44464 31877 ft 425 kts 256°
2026-05-07 17:33 52.07922 19.39776 31987 ft 413 kts 256°
2026-05-07 17:33 52.07550 19.35342 31996 ft 401 kts 256°
2026-05-07 17:34 52.07183 19.31015 31998 ft 397 kts 256°
2026-05-07 17:34 52.06768 19.26238 32006 ft 396 kts 256°
2026-05-07 17:35 52.05994 19.17424 32032 ft 393 kts 255°
2026-05-07 17:35 52.05261 19.09153 32033 ft 392 kts 255°
2026-05-07 17:36 52.04478 19.00380 32007 ft 398 kts 255°
2026-05-07 17:36 52.04066 18.95854 32007 ft 412 kts 255°
2026-05-07 17:36 52.03644 18.91243 32019 ft 426 kts 255°
2026-05-07 17:37 52.03201 18.86404 32006 ft 439 kts 255°
2026-05-07 17:37 52.02749 18.81430 32003 ft 451 kts 256°
2026-05-07 17:37 52.01828 18.71244 32013 ft 462 kts 256°
2026-05-07 17:38 52.00884 18.60861 32012 ft 461 kts 256°
2026-05-07 17:38 51.99934 18.50592 32018 ft 460 kts 256°
2026-05-07 17:39 51.98971 18.40344 32022 ft 459 kts 255°
2026-05-07 17:39 51.97996 18.30103 32017 ft 460 kts 255°
2026-05-07 17:40 51.97018 18.19910 32021 ft 460 kts 255°
2026-05-07 17:40 51.96027 18.09660 32021 ft 460 kts 255°
2026-05-07 17:41 51.95027 17.99414 32024 ft 460 kts 255°
2026-05-07 17:41 51.94064 17.89649 32027 ft 460 kts 255°
2026-05-07 17:42 51.93025 17.79200 32032 ft 461 kts 255°
2026-05-07 17:42 51.92038 17.69384 32022 ft 463 kts 255°
2026-05-07 17:43 51.90995 17.59077 32034 ft 464 kts 255°
2026-05-07 17:43 51.89949 17.48828 32033 ft 464 kts 255°
2026-05-07 17:44 51.88887 17.38523 32031 ft 464 kts 255°
2026-05-07 17:44 51.87828 17.28299 32064 ft 456 kts 255°
2026-05-07 17:45 51.86752 17.18084 32033 ft 465 kts 255°
2026-05-07 17:45 51.85657 17.07757 32034 ft 466 kts 255°
2026-05-07 17:46 51.84567 16.97522 31808 ft 463 kts 255°
2026-05-07 17:46 51.84015 16.92380 31705 ft 465 kts 255°
2026-05-07 17:46 51.83459 16.87229 31316 ft 465 kts 255°
2026-05-07 17:47 51.82901 16.82075 30818 ft 465 kts 255°
2026-05-07 17:47 51.82339 16.76915 30317 ft 466 kts 254°
2026-05-07 17:47 51.81775 16.71760 29822 ft 466 kts 255°
2026-05-07 17:47 51.81209 16.66605 29253 ft 465 kts 255°
2026-05-07 17:48 51.80645 16.61489 28689 ft 462 kts 255°
2026-05-07 17:48 51.80083 16.56404 28140 ft 459 kts 255°
2026-05-07 17:48 51.79528 16.51406 27607 ft 456 kts 256°
2026-05-07 17:48 51.78969 16.46387 27078 ft 453 kts 256°
2026-05-07 17:49 51.78410 16.41396 26557 ft 450 kts 256°
2026-05-07 17:49 51.77855 16.36466 26057 ft 446 kts 256°
2026-05-07 17:49 51.77306 16.31586 25544 ft 434 kts 256°
2026-05-07 17:49 51.76773 16.26864 25054 ft 422 kts 256°
2026-05-07 17:50 51.76240 16.22255 24608 ft 420 kts 256°
2026-05-07 17:50 51.75699 16.17608 24134 ft 425 kts 258°
2026-05-07 17:50 51.75157 16.12898 23668 ft 427 kts 258°
2026-05-07 17:50 51.74618 16.08191 23117 ft 426 kts 258°
2026-05-07 17:51 51.74088 16.03563 22572 ft 423 kts 258°
2026-05-07 17:51 51.73552 15.98914 22030 ft 420 kts 258°
2026-05-07 17:51 51.73019 15.94304 21504 ft 417 kts 258°
2026-05-07 17:51 51.72482 15.89696 20981 ft 421 kts 258°
2026-05-07 17:52 51.71935 15.85038 20462 ft 423 kts 258°
2026-05-07 17:52 51.71388 15.80384 20108 ft 423 kts 258°
2026-05-07 17:52 51.70839 15.75736 20032 ft 422 kts 258°
2026-05-07 17:52 51.70290 15.71102 20030 ft 421 kts 258°
2026-05-07 17:53 51.69738 15.66460 20037 ft 420 kts 258°
2026-05-07 17:53 51.69185 15.61828 20036 ft 422 kts 258°
2026-05-07 17:53 51.68636 15.57246 20034 ft 423 kts 258°
2026-05-07 17:53 51.68078 15.52594 20033 ft 423 kts 258°
2026-05-07 17:54 51.67510 15.47881 20034 ft 423 kts 258°
2026-05-07 17:54 51.66955 15.43295 20040 ft 423 kts 258°
2026-05-07 17:54 51.66391 15.38652 20042 ft 423 kts 258°
2026-05-07 17:54 51.65824 15.33999 20037 ft 423 kts 258°
2026-05-07 17:55 51.65257 15.29360 20036 ft 423 kts 258°
2026-05-07 17:55 51.64687 15.24715 20037 ft 423 kts 258°
2026-05-07 17:55 51.64115 15.20077 20044 ft 423 kts 258°
2026-05-07 17:55 51.63541 15.15429 20042 ft 423 kts 258°
2026-05-07 17:56 51.62966 15.10791 20045 ft 423 kts 258°
2026-05-07 17:56 51.62391 15.06168 20042 ft 422 kts 258°
2026-05-07 17:56 51.61820 15.01590 20047 ft 422 kts 258°
2026-05-07 17:56 51.61232 14.96902 20045 ft 422 kts 258°
2026-05-07 17:57 51.60660 14.92347 20045 ft 422 kts 258°
2026-05-07 17:57 51.60266 14.89221 20045 ft 422 kts 258°
2026-05-07 17:57 51.59492 14.83091 20046 ft 422 kts 258°
2026-05-07 17:57 51.58905 14.78471 20052 ft 422 kts 258°
2026-05-07 17:58 51.58312 14.73840 20051 ft 423 kts 257°
2026-05-07 17:58 51.57687 14.69219 20050 ft 424 kts 257°
2026-05-07 17:58 51.57036 14.64599 20051 ft 424 kts 256°
2026-05-07 17:58 51.56371 14.59971 20050 ft 425 kts 256°
2026-05-07 17:59 51.55928 14.56911 20051 ft 425 kts 257°
2026-05-07 17:59 51.55262 14.52308 19995 ft 421 kts 256°
2026-05-07 17:59 51.54600 14.47737 19694 ft 421 kts 256°
2026-05-07 17:59 51.53721 14.41660 19567 ft 422 kts 256°
2026-05-07 18:00 51.53270 14.38550 19567 ft 422 kts 257°
2026-05-07 18:00 51.52395 14.32490 19567 ft 420 kts 256°
2026-05-07 18:00 51.51731 14.27918 19568 ft 420 kts 256°
2026-05-07 18:00 51.51062 14.23340 19503 ft 420 kts 256°
2026-05-07 18:01 51.50625 14.20349 19372 ft 415 kts 256°
2026-05-07 18:01 51.49967 14.15868 18622 ft 409 kts 256°
2026-05-07 18:01 51.49315 14.11435 17730 ft 408 kts 256°
2026-05-07 18:01 51.48662 14.07006 17211 ft 408 kts 256°
2026-05-07 18:02 51.47352 13.98159 17050 ft 406 kts 256°
2026-05-07 18:02 51.46699 13.93766 17058 ft 406 kts 256°
2026-05-07 18:02 51.46103 13.89332 17055 ft 414 kts 261°
2026-05-07 18:03 51.45919 13.84595 17037 ft 427 kts 267°
2026-05-07 18:03 51.45758 13.80014 17067 ft 397 kts 265°
2026-05-07 18:03 51.45556 13.75635 17060 ft 389 kts 265°
2026-05-07 18:03 51.45362 13.71500 17064 ft 368 kts 265°
2026-05-07 18:04 51.45173 13.67460 17062 ft 360 kts 265°
2026-05-07 18:04 51.44988 13.63466 17065 ft 358 kts 265°
2026-05-07 18:04 51.44804 13.59487 17063 ft 358 kts 265°
2026-05-07 18:04 51.44618 13.55504 17060 ft 358 kts 265°
2026-05-07 18:05 51.44393 13.51555 17064 ft 358 kts 263°
2026-05-07 18:05 51.44044 13.47597 17067 ft 359 kts 260°
2026-05-07 18:05 51.43646 13.43652 17061 ft 359 kts 260°
2026-05-07 18:05 51.43245 13.39709 17066 ft 359 kts 260°
2026-05-07 18:06 51.42843 13.35761 17063 ft 359 kts 260°
2026-05-07 18:06 51.42440 13.31818 17068 ft 359 kts 260°
2026-05-07 18:06 51.42043 13.27934 17070 ft 359 kts 260°
2026-05-07 18:06 51.41633 13.23933 17066 ft 359 kts 259°
2026-05-07 18:07 51.41235 13.20042 17066 ft 359 kts 260°
2026-05-07 18:07 51.40831 13.16099 17068 ft 359 kts 259°
2026-05-07 18:07 51.40425 13.12153 17071 ft 359 kts 260°
2026-05-07 18:07 51.40020 13.08216 17071 ft 359 kts 259°
2026-05-07 18:08 51.39615 13.04284 17073 ft 359 kts 259°
2026-05-07 18:08 51.39202 13.00324 17076 ft 359 kts 260°
2026-05-07 18:08 51.38779 12.96380 17073 ft 360 kts 259°
2026-05-07 18:08 51.38352 12.92439 17078 ft 360 kts 259°
2026-05-07 18:09 51.37845 12.88508 17076 ft 361 kts 258°
2026-05-07 18:09 51.37391 12.84563 17053 ft 360 kts 259°
2026-05-07 18:09 51.36972 12.80706 16579 ft 356 kts 259°
2026-05-07 18:09 51.36552 12.76805 15886 ft 354 kts 259°
2026-05-07 18:10 51.36137 12.72948 15242 ft 350 kts 259°
2026-05-07 18:10 51.35727 12.69123 14620 ft 347 kts 259°
2026-05-07 18:10 51.35314 12.65355 14073 ft 341 kts 259°
2026-05-07 18:10 51.34894 12.61646 13442 ft 336 kts 259°
2026-05-07 18:11 51.34476 12.57987 12761 ft 333 kts 259°
2026-05-07 18:11 51.34059 12.54365 12097 ft 330 kts 259°
2026-05-07 18:11 51.33643 12.50780 11474 ft 326 kts 261°
2026-05-07 18:11 51.33216 12.47232 11149 ft 325 kts 261°
2026-05-07 18:12 51.32901 12.43655 10821 ft 324 kts 264°
2026-05-07 18:12 51.32644 12.40127 10197 ft 321 kts 264°
2026-05-07 18:12 51.32399 12.36652 9924 ft 307 kts 264°
2026-05-07 18:12 51.32165 12.33344 9704 ft 292 kts 264°
2026-05-07 18:13 51.31941 12.30190 9405 ft 282 kts 264°
2026-05-07 18:13 51.31719 12.27090 8970 ft 278 kts 264°
2026-05-07 18:13 51.31499 12.24040 8505 ft 276 kts 264°
2026-05-07 18:13 51.31275 12.21020 8035 ft 274 kts 264°
2026-05-07 18:14 51.31055 12.17995 7569 ft 272 kts 268°
2026-05-07 18:14 51.31137 12.14990 7116 ft 270 kts 278°
2026-05-07 18:14 51.31391 12.12073 6830 ft 260 kts 279°
2026-05-07 18:14 51.31649 12.09308 6560 ft 242 kts 279°
2026-05-07 18:15 51.31888 12.06725 6131 ft 235 kts 279°
2026-05-07 18:15 51.32125 12.04159 5607 ft 234 kts 279°
2026-05-07 18:15 51.32364 12.01564 4866 ft 237 kts 279°
2026-05-07 18:15 51.32610 11.98943 4108 ft 239 kts 279°
2026-05-07 18:16 51.32859 11.96313 3433 ft 249 kts 281°
2026-05-07 18:16 51.33555 11.93520 3053 ft 275 kts 307°
2026-05-07 18:16 51.34891 11.91678 2983 ft 238 kts 336°
2026-05-07 18:16 51.36408 11.91029 2997 ft 231 kts 352°
2026-05-07 18:17 51.38055 11.90941 3003 ft 241 kts 12°
2026-05-07 18:17 51.39529 11.92128 2997 ft 235 kts 45°
2026-05-07 18:17 51.40173 11.94303 2988 ft 209 kts 84°
2026-05-07 18:17 51.40117 11.96491 3022 ft 186 kts 91°
2026-05-07 18:18 51.40117 11.98485 3003 ft 181 kts 85°
2026-05-07 18:18 51.40220 12.00503 2968 ft 181 kts 83°
2026-05-07 18:18 51.40319 12.02488 2739 ft 174 kts 83°
2026-05-07 18:18 51.40403 12.04342 2499 ft 158 kts 83°
2026-05-07 18:19 51.40480 12.06007 2283 ft 143 kts 83°
2026-05-07 18:19 51.40552 12.07526 2088 ft 131 kts 83°
2026-05-07 18:19 51.40618 12.08923 1918 ft 123 kts 83°
2026-05-07 18:19 51.40681 12.10280 1759 ft 122 kts 83°
2026-05-07 18:20 51.40745 12.11637 1579 ft 122 kts 83°
2026-05-07 18:20 51.40808 12.12986 1407 ft 121 kts 83°
2026-05-07 18:20 51.40870 12.14311 1239 ft 121 kts 83°
2026-05-07 18:20 51.40945 12.15654 1038 ft 121 kts 81°
2026-05-07 18:21 51.41024 12.16993 855 ft 121 kts 86°
2026-05-07 18:21 51.41062 12.18336 700 ft 122 kts 83°
2026-05-07 18:21 51.41120 12.19680 577 ft 121 kts 84°
2026-05-07 18:21 51.41182 12.21025 453 ft 117 kts 82°
2026-05-07 18:22 51.41237 12.21986 459 ft 51 kts 85°
2026-05-07 18:22 51.41245 12.22155 459 ft 1 kts 87°
2026-05-07 18:22 51.41252 12.22342 461 ft 18 kts 86°
2026-05-07 18:22 51.41264 12.22649 464 ft 34 kts 86°
2026-05-07 18:23 51.41282 12.23053 467 ft 38 kts 85°
2026-05-07 18:23 51.41304 12.23449 468 ft 34 kts 85°
2026-05-07 18:23 51.41313 12.23837 471 ft 35 kts 96°
2026-05-07 18:23 51.41246 12.24175 466 ft 29 kts 115°
2026-05-07 18:24 51.41211 12.24289 471 ft 1 kts 117°
2026-05-07 18:24 51.41208 12.24299 471 ft 1 kts 117°
2026-05-07 18:25 51.41199 12.24311 468 ft 3 kts 150°
2026-05-07 18:25 51.41179 12.24286 470 ft 9 kts 238°
2026-05-07 18:25 51.41158 12.24125 469 ft 15 kts 269°
2026-05-07 18:26 51.41154 12.23974 472 ft 18 kts 265°
2026-05-07 18:26 51.41131 12.23533 474 ft 60 kts 265°
2026-05-07 18:26 51.41097 12.22849 465 ft 59 kts 265°
2026-05-07 18:26 51.41070 12.22226 460 ft 53 kts 267°
2026-05-07 18:27 51.41038 12.21671 462 ft 48 kts 266°
2026-05-07 18:27 51.40990 12.21413 456 ft 12 kts 210°
2026-05-07 18:27 51.40940 12.21310 455 ft 17 kts 256°
2026-05-07 18:27 51.40937 12.21059 448 ft 27 kts 261°
2026-05-07 18:28 51.40911 12.20759 443 ft 8 kts 266°
2026-05-07 18:28 51.40903 12.20556 442 ft 22 kts 266°
2026-05-07 18:28 51.40880 12.20481 427 ft 1 kts 239°
2026-05-07 18:28 51.40875 12.20425 427 ft 6 kts 255°
2026-05-07 18:29 51.40848 12.20367 426 ft 7 kts 218°
2026-05-07 18:29 51.40811 12.20352 428 ft 0 kts 178°